Weather History for Presque Isle, ME

Change the Weather History Date:

Friday, October 5, 2012

  Actual Average Record
Temperature  
Mean Temperature 56 °F -  
Max Temperature 62 °F 57 °F 78 °F (1946)
Min Temperature 51 °F 37 °F 21 °F (1934)
Degree Days  
Heating Degree Days 8    
Growing Degree Days 6 (Base 50)    
Moisture  
Dew Point 50 °F    
Average Humidity 84    
Maximum Humidity 88    
Minimum Humidity 77    
Precipitation  
Precipitation 0.09 in - - ()
Sea Level Pressure  
Sea Level Pressure 29.84 in    
Wind  
Wind Speed 6 mph (SSE)    
Max Wind Speed 12 mph    
Max Gust Speed -    
Visibility 10 miles    
Events      
Averages and records for this station are not official NWS values.
T = Trace of Precipitation, MM = Missing Value Source: NWS Daily Summary

Daily Weather History Graph

Daily Weather History Graph

Search for Another Location

Airport:

Trip Planner

Search our weather history database for the weather conditions in past years. The results will help you decide how hot, cold, wet, or windy it might be!

Date:

Astronomy

Oct. 05, 2012 Rise Set
Actual Time 6:36 AM EDT 6:03 PM EDT
Civil Twilight 6:06 AM EDT 6:33 PM EDT
Nautical Twilight 5:31 AM EDT 7:08 PM EDT
Astronomical Twilight 4:56 AM EDT 7:43 PM EDT
Moon 9:06 PM EDT (10/5) 11:58 AM EDT (10/5)
Length of Visible Light 12h 26m
Length of Day
11h 26m
Waning Gibbous, 74% of the Moon is Illuminated
Oct 5
Waning Gibbous
Oct 8
Last Quarter
Oct 15
New
Oct 21
First Quarter
Oct 29
Full

Hourly Weather History & Observations

Time (EDT) Temp. Dew Point Humidity Pressure Visibility Wind Dir Wind Speed Gust Speed Precip Events Conditions
12:15 AM 51.8 °F 46.4 °F 82% 29.94 in 10.0 mi SSE 8.1 mph - 0.02 in   Overcast
12:35 AM 51.8 °F 46.4 °F 82% 29.94 in 10.0 mi South 6.9 mph - 0.04 in   Overcast
12:55 AM 51.8 °F 46.4 °F 82% 29.93 in 10.0 mi SSE 6.9 mph - 0.06 in   Overcast
1:15 AM 51.8 °F 46.4 °F 82% 29.93 in 10.0 mi SSE 5.8 mph - N/A   Overcast
1:35 AM 51.8 °F 46.4 °F 82% 29.93 in 9.0 mi South 6.9 mph - 0.01 in   Overcast
1:55 AM 51.8 °F 46.4 °F 82% 29.95 in 10.0 mi SW 4.6 mph - 0.01 in   Overcast
2:15 AM 51.8 °F 46.4 °F 82% 29.93 in 8.0 mi SSE 4.6 mph - 0.01 in   Overcast
2:35 AM 51.8 °F 46.4 °F 82% 29.92 in 8.0 mi South 4.6 mph - 0.01 in   Overcast
2:55 AM 51.8 °F 46.4 °F 82% 29.91 in 4.0 mi SSE 4.6 mph - 0.01 in   Overcast
3:15 AM 51.8 °F 46.4 °F 82% 29.91 in 9.0 mi SSE 3.5 mph - N/A   Overcast
3:35 AM 51.8 °F 46.4 °F 82% 29.91 in 10.0 mi SSE 4.6 mph - N/A   Overcast
3:55 AM 51.8 °F 46.4 °F 82% 29.91 in 10.0 mi South 3.5 mph - N/A   Overcast
4:15 AM 51.8 °F 46.4 °F 82% 29.90 in 10.0 mi South 4.6 mph - N/A   Overcast
4:35 AM 51.8 °F 46.4 °F 82% 29.90 in 10.0 mi SW 3.5 mph - N/A   Overcast
4:55 AM 51.8 °F 46.4 °F 82% 29.89 in 10.0 mi SSE 3.5 mph - N/A   Overcast
5:15 AM 51.8 °F 46.4 °F 82% 29.89 in 10.0 mi SSE 4.6 mph - N/A   Overcast
5:35 AM 51.8 °F 46.4 °F 82% 29.88 in 10.0 mi South 4.6 mph - N/A   Overcast
5:55 AM 51.8 °F 46.4 °F 82% 29.87 in 10.0 mi SSE 3.5 mph - N/A   Overcast
6:15 AM 51.8 °F 46.4 °F 82% 29.87 in 10.0 mi SE 4.6 mph - N/A   Overcast
6:35 AM 51.8 °F 46.4 °F 82% 29.87 in 10.0 mi South 5.8 mph - N/A   Overcast
6:55 AM 51.8 °F 46.4 °F 82% 29.87 in 10.0 mi SSE 4.6 mph - N/A   Overcast
7:15 AM 51.8 °F 46.4 °F 82% 29.88 in 10.0 mi SSW 5.8 mph - N/A   Overcast
7:35 AM 51.8 °F 46.4 °F 82% 29.87 in 10.0 mi South 9.2 mph - N/A   Overcast
7:55 AM 51.8 °F 46.4 °F 82% 29.88 in 10.0 mi South 6.9 mph - N/A   Overcast
8:15 AM 51.8 °F 46.4 °F 82% 29.87 in 10.0 mi South 6.9 mph - N/A   Overcast
8:35 AM 51.8 °F 46.4 °F 82% 29.86 in 10.0 mi South 5.8 mph - N/A   Overcast
8:55 AM 51.8 °F 48.2 °F 88% 29.86 in 10.0 mi SSE 5.8 mph - N/A   Overcast
9:15 AM 51.8 °F 48.2 °F 88% 29.86 in 10.0 mi SE 4.6 mph - N/A   Overcast
9:35 AM 51.8 °F 48.2 °F 88% - 10.0 mi South 5.8 mph - N/A   Overcast
9:55 AM 53.6 °F 48.2 °F 82% 29.86 in 10.0 mi SSE 5.8 mph - N/A   Overcast
10:15 AM 53.6 °F 48.2 °F 82% 29.85 in 10.0 mi SSE 8.1 mph - N/A   Overcast
10:35 AM 53.6 °F 48.2 °F 82% 29.85 in 10.0 mi SSE 8.1 mph - N/A   Overcast
10:55 AM 53.6 °F 48.2 °F 82% 29.85 in 10.0 mi South 6.9 mph - N/A   Overcast
11:15 AM 53.6 °F 50.0 °F 88% 29.85 in 10.0 mi South 6.9 mph - N/A   Overcast
11:35 AM 53.6 °F 50.0 °F 88% 29.84 in 10.0 mi SSE 6.9 mph - N/A   Overcast
11:55 AM 55.4 °F 51.8 °F 88% 29.84 in 10.0 mi SSE 4.6 mph - N/A   Overcast
12:15 PM 55.4 °F 51.8 °F 88% 29.84 in 10.0 mi South 6.9 mph - N/A   Overcast
12:35 PM 55.4 °F 51.8 °F 88% 29.84 in 10.0 mi South 5.8 mph - N/A   Overcast
12:55 PM 55.4 °F 51.8 °F 88% 29.84 in 10.0 mi South 5.8 mph - N/A   Overcast
1:15 PM 57.2 °F 51.8 °F 82% 29.83 in 10.0 mi SSE 5.8 mph - N/A   Overcast
1:35 PM 57.2 °F 51.8 °F 82% 29.83 in 10.0 mi SE 4.6 mph - N/A   Overcast
1:55 PM 59.0 °F 53.6 °F 82% 29.82 in 10.0 mi SSE 5.8 mph - N/A   Overcast
2:35 PM 62.6 °F 55.4 °F 77% 29.81 in 10.0 mi SSE 5.8 mph - N/A   Mostly Cloudy
2:55 PM 60.8 °F 53.6 °F 77% 29.80 in 10.0 mi SSE 6.9 mph - N/A   Overcast
3:35 PM 62.6 °F 55.4 °F 77% 29.79 in 10.0 mi SE 9.2 mph - N/A   Mostly Cloudy
3:55 PM 60.8 °F 53.6 °F 77% 29.79 in 10.0 mi SE 11.5 mph - N/A   Mostly Cloudy
4:15 PM 60.8 °F 53.6 °F 77% - 10.0 mi SSE 9.2 mph - N/A   Overcast
4:35 PM 60.8 °F 53.6 °F 77% 29.79 in 10.0 mi SSE 11.5 mph - N/A   Mostly Cloudy
4:55 PM 60.8 °F 55.4 °F 82% 29.79 in 10.0 mi SSE 8.1 mph - N/A   Scattered Clouds
5:15 PM 60.8 °F 53.6 °F 77% 29.78 in 10.0 mi SSE 8.1 mph - N/A   Clear
5:35 PM 59.0 °F 53.6 °F 82% 29.78 in 10.0 mi SE 8.1 mph - N/A   Partly Cloudy
5:55 PM 59.0 °F 53.6 °F 82% 29.79 in 10.0 mi SSE 8.1 mph - N/A   Scattered Clouds
6:15 PM 59.0 °F 53.6 °F 82% 29.80 in 10.0 mi SSE 5.8 mph - N/A   Overcast
6:35 PM 57.2 °F 53.6 °F 88% 29.79 in 10.0 mi SE 5.8 mph - N/A   Overcast
6:55 PM 59.0 °F 53.6 °F 82% 29.79 in 10.0 mi SSE 5.8 mph - N/A   Overcast
7:15 PM 57.2 °F 53.6 °F 88% 29.79 in 10.0 mi South 8.1 mph - N/A   Overcast
7:35 PM 57.2 °F 53.6 °F 88% 29.79 in 10.0 mi South 8.1 mph - N/A   Overcast
7:55 PM 57.2 °F 53.6 °F 88% 29.78 in 10.0 mi SSE 8.1 mph - N/A   Overcast
8:15 PM 57.2 °F 53.6 °F 88% - 10.0 mi SSE 5.8 mph - N/A   Overcast
8:35 PM 57.2 °F 53.6 °F 88% 29.79 in 10.0 mi SE 5.8 mph - N/A   Overcast
8:55 PM 57.2 °F 53.6 °F 88% 29.78 in 10.0 mi SE 6.9 mph - N/A   Mostly Cloudy
9:15 PM 57.2 °F 53.6 °F 88% 29.78 in 10.0 mi SSE 5.8 mph - N/A   Overcast
9:35 PM 57.2 °F 53.6 °F 88% 29.78 in 10.0 mi SSE 8.1 mph - N/A   Mostly Cloudy
9:55 PM 57.2 °F 53.6 °F 88% 29.77 in 10.0 mi SSE 9.2 mph - N/A   Overcast
10:15 PM 57.2 °F 53.6 °F 88% 29.78 in 10.0 mi Calm Calm - N/A   Overcast
10:35 PM 57.2 °F 53.6 °F 88% 29.77 in 9.0 mi SSE 4.6 mph - 0.01 in   Overcast
10:55 PM 57.2 °F 53.6 °F 88% 29.77 in 9.0 mi SE 4.6 mph - 0.01 in   Overcast
11:15 PM 57.2 °F 53.6 °F 88% 29.77 in 8.0 mi Calm Calm - N/A   Overcast
11:35 PM 57.2 °F 53.6 °F 88% 29.76 in 9.0 mi ESE 3.5 mph - N/A   Overcast
11:55 PM 57.2 °F 53.6 °F 88% 29.76 in 10.0 mi SE 4.6 mph - N/A   Overcast